Home   Weather   Cartagena   Past weeks

Flag for Colombia Past Weather in Cartagena, Colombia — Yesterday and Last 2 Weeks

Now
82 °F

Passing clouds.


Feels Like: 92 °F
Forecast: 81 / 89 °F
Wind: 7 mph from Northeast

Location: Cartagena / Rafael Nunez

Current Time: Sep 30, 2016 at 12:02:09 AM

Latest Report: Sep 29, 2016 at 11:00 PM


Visibility: N/A

Pressure: 29.86 "Hg

Humidity: 89%

Dew Point: 79 °F

Location of CartagenaLocation

Past Weather in Cartagena — Graph

°F

Cartagena Temperature Yesterday

Maximum temperature yesterday: 91 °F (at 12:00 PM)
Minimum temperature yesterday: 82 °F (at 3:00 AM)
Average temperature yesterday: 86 °F

High & Low Weather Summary for the Past Weeks

 TemperatureHumidityPressure
High95 °F (Sep 18, 11:00 AM)100% (Sep 16, 5:00 AM)29.92 "Hg (Sep 16, 5:00 AM)
Low79 °F (Sep 16, 5:00 AM)48% (Sep 18, 1:00 AM)29.71 "Hg (Sep 20, 5:00 PM)
Average85 °F82%29.81 "Hg
* Reported Sep 14 11:00 PM — Sep 29 11:00 PM, Cartagena, Weather by CustomWeather, © 2016

Note: Actual official high and low records may vary slightly from our data, if they occured in-between our weather recording intervals... More about our weather records

Advertising

Cartagena Weather History for the Previous 24 Hours

Scroll right to see more
 ConditionsComfort  
Time TempWeatherWind HumidityBarometerVisibility
11:00 PM
Thu, Sep 29
82 °FPassing clouds.7 mph89%29.86 "HgN/A
10:00 PM84 °FPassing clouds.7 mph84%29.87 "HgN/A
9:00 PM84 °FPassing clouds.7 mph84%29.85 "HgN/A
8:00 PM84 °FPassing clouds.7 mph84%29.83 "HgN/A
7:00 PM84 °FPartly cloudy.12 mph79%29.80 "HgN/A
6:00 PM86 °FPassing clouds.15 mph79%29.79 "HgN/A
5:00 PM86 °FScattered clouds.10 mph75%29.78 "HgN/A
4:00 PM88 °FScattered clouds.7 mph70%29.78 "HgN/A
3:00 PM90 °FScattered clouds.14 mph67%29.78 "HgN/A
2:00 PM90 °FScattered clouds.18 mph67%29.78 "HgN/A
1:00 PM91 °FScattered clouds.17 mph67%29.81 "HgN/A
12:00 PM91 °FScattered clouds.5 mph67%29.83 "HgN/A
11:00 AM90 °FScattered clouds.3 mph75%29.87 "HgN/A
10:00 AM88 °FScattered clouds.3 mph79%29.88 "HgN/A
9:00 AM86 °FScattered clouds.3 mph84%29.88 "HgN/A
8:00 AM84 °FScattered clouds.3 mph89%29.86 "HgN/A
7:00 AM84 °FScattered clouds.No wind89%29.82 "HgN/A
6:00 AM82 °FPartly sunny.3 mph94%29.80 "Hg5 mi
5:00 AM82 °FPassing clouds.5 mph89%29.79 "HgN/A
4:00 AM82 °FPartly cloudy.3 mph94%29.79 "HgN/A
3:00 AM82 °FPassing clouds.6 mph94%29.79 "HgN/A
2:00 AM84 °FPassing clouds.12 mph84%29.81 "HgN/A
1:00 AM84 °FPassing clouds.14 mph84%29.81 "HgN/A
12:00 AM84 °FPassing clouds.5 mph89%29.84 "HgN/A
Weather by CustomWeather, © 2016

See weather overviewHow to use our weather pages